Theta_e
304 304 304 303 303 303 303 303 303 303 303 303 303 303 304 305 308 311 311 310 310 310 312 314 314 315 316 316 318 319 319 320 321 321 320 320 319 318 318 318 317 317 316 315 315 314 314 313 313 312 311 311 311 312 313 315 318 321 323 324 325 325 325 325 325 326 326 326 326 326 326 326 325 325
304 304 304 304 304 304 304 303 303 304 303 303 303 303 303 303 304 306 306 306 306 305 306 307 307 308 309 310 311 311 313 314 315 315 315 315 314 314 314 313 313 312 311 310 309 309 308 308 307 308 308 308 308 308 308 308 309 312 315 319 321 323 324 324 324 325 325 325 325 325 326 326 325 325
306 305 305 305 305 305 305 305 305 305 305 305 305 305 305 305 305 305 306 306 306 305 305 305 304 304 304 304 305 304 305 305 305 306 306 306 306 306 306 306 306 306 306 306 306 306 306 306 307 307 308 309 309 310 310 310 309 309 310 312 314 316 318 319 321 322 323 324 325 325 325 325 325 324
307 307 307 307 307 307 307 307 307 307 307 307 308 308 307 308 308 308 308 307 307 306 306 306 305 305 305 304 303 303 303 302 302 302 302 302 302 302 303 303 303 304 305 305 306 306 307 307 307 308 308 309 310 310 311 311 311 311 311 311 311 312 312 313 314 316 318 319 319 320 321 323 324 324
307 307 307 307 307 307 307 307 307 307 307 307 308 308 308 308 309 308 309 308 308 307 306 306 306 306 306 306 305 305 304 303 303 302 302 301 301 302 302 303 304 304 305 306 306 307 307 307 308 308 308 309 309 309 310 310 310 310 311 311 311 311 311 311 312 312 313 314 314 315 316 318 321 323
307 307 307 307 307 307 307 307 307 307 307 306 307 307 307 307 308 308 308 308 308 308 306 306 307 307 307 307 306 306 306 305 304 303 302 302 302 302 302 303 303 304 305 306 306 307 307 307 307 307 308 308 308 309 309 309 309 310 310 311 311 311 311 312 312 312 313 313 313 313 312 313 314 317
308 308 307 307 307 307 307 307 307 307 307 307 306 306 306 306 306 306 306 306 307 307 307 306 307 307 307 307 307 307 306 305 304 303 302 301 301 301 301 302 303 304 304 304 305 306 306 307 307 307 307 307 307 307 308 308 308 308 309 310 310 311 311 312 312 313 314 313 312 312 312 311 311 312
310 310 309 308 307 307 308 308 308 309 309 308 308 307 307 306 306 306 306 305 305 305 305 305 305 306 306 306 306 307 306 305 304 304 303 301 301 300 300 301 301 302 303 304 304 304 305 306 307 307 307 307 307 307 307 307 307 307 308 309 309 310 310 310 311 312 313 313 313 313 312 311 310 310
314 313 312 311 310 310 310 310 311 311 311 310 310 309 308 308 307 308 307 306 305 304 305 304 304 305 304 304 305 305 306 307 307 306 305 304 302 301 300 300 300 300 301 302 303 304 305 305 306 307 307 308 308 308 308 308 308 308 307 307 308 308 308 309 310 311 312 313 314 314 312 311 309 308
316 315 315 314 314 313 313 313 314 314 314 313 312 311 310 310 311 311 309 308 307 305 305 304 304 304 304 305 305 305 305 306 306 307 307 305 303 302 301 301 300 299 300 300 301 301 302 303 304 304 305 305 305 306 306 307 307 306 306 306 306 306 306 306 307 308 310 312 313 313 312 310 308 308
318 317 317 316 316 316 315 315 315 314 314 314 314 313 313 312 313 313 311 309 308 307 306 305 305 305 305 305 305 304 304 303 303 304 305 305 304 303 303 302 301 301 300 300 299 299 299 300 300 300 301 301 301 302 302 302 303 303 303 304 304 304 305 304 304 305 307 309 310 311 310 309 308 308
318 318 317 317 317 317 316 316 315 314 313 313 313 313 313 313 313 312 311 310 309 308 308 307 307 307 306 305 305 305 304 304 304 303 302 303 303 303 303 301 301 301 300 300 300 299 299 299 299 299 299 299 299 300 300 301 301 302 302 303 304 305 305 306 305 305 305 306 307 308 309 308 308 309
318 318 317 317 317 317 317 316 316 314 313 313 312 312 312 312 312 312 311 311 310 309 308 307 307 307 306 306 306 306 305 305 304 302 300 300 300 301 302 301 300 300 300 300 300 300 299 299 299 300 299 299 299 299 300 300 300 301 302 303 304 305 305 306 307 307 307 307 307 307 307 308 309 311
318 318 317 317 317 317 316 316 315 314 313 312 312 312 311 311 311 311 311 311 310 309 308 307 307 307 306 305 304 304 304 303 302 302 300 300 300 300 301 302 301 300 300 300 300 300 300 299 299 299 299 299 299 299 299 299 299 300 300 301 301 302 302 303 304 305 305 306 307 307 308 308 310 311
318 318 318 317 317 316 316 315 315 314 313 312 312 312 311 310 309 309 310 310 309 309 308 307 307 305 304 304 302 302 302 302 301 300 299 298 298 298 298 300 301 300 299 299 299 300 300 299 299 299 299 299 299 299 299 299 299 299 299 299 299 299 299 299 300 300 301 301 303 305 307 309 310 311
319 319 318 317 317 316 316 315 315 314 313 312 312 312 311 309 308 308 309 309 308 308 308 307 306 304 303 303 302 301 301 301 300 298 297 296 297 297 297 297 299 299 298 297 298 300 300 299 299 299 299 299 299 299 299 299 299 299 299 299 299 299 299 300 299 299 299 299 300 301 304 307 308 310
319 319 319 318 317 316 316 315 315 314 312 311 311 311 310 308 308 309 308 308 308 308 307 307 306 304 302 301 301 300 299 299 298 297 296 296 296 296 297 297 298 298 298 297 297 299 300 299 298 298 299 298 298 298 298 298 298 299 299 299 299 299 300 300 300 300 300 299 300 300 300 302 304 306
317 318 319 319 318 316 315 315 314 312 311 311 311 311 309 308 308 308 307 307 307 307 307 306 306 305 303 301 300 299 298 297 296 295 295 295 296 296 296 296 297 297 297 296 296 297 299 299 298 298 298 298 298 298 298 298 298 298 298 298 299 299 299 300 300 300 300 300 300 301 300 300 301 302
314 316 318 318 317 316 316 314 313 312 311 311 311 310 308 307 307 307 307 306 306 306 306 306 305 304 303 301 299 298 297 296 295 294 294 295 295 295 295 296 296 296 296 296 295 296 297 298 297 297 298 298 298 298 298 297 297 297 297 297 298 299 299 299 300 301 301 302 302 302 302 302 302 301
312 315 317 317 317 316 315 313 312 311 311 311 311 309 308 307 307 307 306 306 305 305 305 305 304 303 302 300 298 297 296 295 294 294 294 294 294 294 295 295 295 296 296 296 295 295 296 296 296 297 297 297 297 297 297 297 297 297 297 297 298 299 299 300 301 302 303 303 304 304 304 304 304 303
311 313 314 315 316 315 313 312 310 310 311 310 309 307 306 306 307 307 305 304 303 304 304 304 303 301 299 298 297 296 295 294 294 294 294 294 294 294 294 295 295 295 295 295 295 295 295 294 294 295 296 296 296 296 297 297 297 297 297 297 298 299 299 301 303 303 303 304 304 305 305 306 306 306
311 312 313 314 314 313 311 310 310 311 310 309 308 306 306 306 306 305 304 303 302 302 302 301 299 298 297 296 295 294 294 294 294 294 294 294 294 294 294 294 294 294 294 294 294 294 294 293 293 293 294 295 295 295 296 296 296 296 296 296 297 298 299 301 302 302 302 303 303 304 305 305 306 306
310 312 312 313 312 311 310 310 310 309 308 307 306 306 306 306 306 304 303 302 302 302 300 298 297 296 295 294 294 293 294 294 294 294 293 293 293 293 293 292 292 293 293 293 293 293 293 293 293 293 293 293 294 294 295 295 295 296 296 296 296 297 298 300 301 301 301 302 302 303 304 304 305 305
310 311 311 312 312 311 310 309 308 307 306 306 305 305 305 304 303 302 301 301 301 300 298 296 295 294 294 294 294 294 294 294 294 294 293 292 292 292 292 291 291 291 292 292 292 292 292 292 292 292 292 292 293 293 293 293 293 294 295 295 295 295 296 297 299 300 301 302 302 303 303 304 304 304
310 310 310 310 310 309 309 307 306 305 305 305 304 304 303 302 301 301 301 300 298 296 295 294 294 294 294 294 294 294 294 294 294 293 293 292 291 291 291 291 290 290 291 291 291 291 291 291 291 291 291 291 292 292 292 292 292 293 293 294 294 295 295 296 297 298 299 301 301 302 302 302 303 303
309 309 308 308 308 307 307 306 305 305 305 304 303 302 302 301 301 300 299 297 295 294 294 294 294 293 293 293 293 294 293 293 293 292 292 291 290 290 290 290 290 290 290 290 290 290 290 290 291 291 291 291 291 292 292 292 292 292 292 293 293 294 294 295 295 296 297 299 300 301 301 301 302 302
308 307 307 306 306 306 306 305 305 304 303 302 302 302 301 299 297 296 295 294 294 294 293 293 293 293 293 293 293 293 292 292 292 291 291 291 290 290 290 289 289 289 289 289 289 289 289 290 290 290 291 291 291 291 292 292 292 292 292 292 293 293 293 294 294 295 296 297 298 299 300 300 301 302
306 306 305 305 305 305 304 304 303 303 302 301 301 299 297 296 294 294 293 293 293 293 293 293 293 293 293 293 292 292 291 291 291 291 290 290 290 290 289 289 289 289 289 289 289 289 289 289 289 289 290 290 290 291 291 292 292 292 292 292 292 293 293 293 294 294 295 296 297 298 299 300 300 301
305 304 304 304 303 303 302 302 302 301 300 298 297 295 294 293 293 293 293 293 293 293 293 293 292 292 292 291 291 291 290 290 290 290 290 290 289 289 289 289 289 289 289 289 289 289 288 288 288 289 289 289 289 290 291 291 291 292 292 292 293 293 293 293 293 294 295 296 296 297 297 298 299 299
303 302 302 302 302 302 301 300 298 297 295 294 293 293 293 293 293 293 293 293 293 292 292 292 291 291 291 290 290 290 290 289 289 289 290 289 289 289 289 289 289 289 289 289 289 289 289 288 288 288 288 288 289 289 290 290 291 291 292 292 293 293 293 293 294 295 295 296 296 296 296 297 298 298
302 302 301 301 300 299 297 295 294 293 293 293 293 293 293 293 293 293 293 292 292 292 291 291 291 291 290 290 290 289 289 289 290 290 289 289 289 289 289 289 289 289 289 290 290 289 289 289 288 288 288 288 289 289 289 290 290 291 292 292 293 293 294 294 294 295 295 295 295 295 296 296 297 297
301 300 298 296 295 294 293 293 292 293 293 293 293 293 293 293 293 293 292 292 292 291 291 291 291 291 290 290 290 290 290 290 290 290 290 290 290 290 290 289 289 289 290 290 290 290 289 289 288 288 288 288 289 289 289 290 290 291 291 292 293 293 294 294 294 294 294 294 295 295 295 296 296 296
297 295 294 293 292 292 292 293 293 292 293 293 293 293 293 293 293 293 292 292 292 291 291 291 291 290 290 290 290 290 290 290 290 290 290 290 290 290 290 289 289 289 289 289 290 291 290 290 289 289 289 289 289 289 289 290 290 291 291 292 292 293 293 294 294 294 294 294 294 295 295 295 296 296
293 293 293 293 293 293 292 293 292 292 293 293 293 293 293 293 293 292 292 292 291 291 291 291 290 290 290 290 290 290 290 290 290 290 290 290 290 290 289 289 288 288 288 287 289 290 290 290 289 289 289 289 289 289 290 289 290 291 291 291 291 292 293 293 293 293 294 294 294 294 295 295 295 296
293 294 293 293 292 292 292 292 292 292 293 293 293 293 293 293 292 292 292 291 291 291 291 290 290 290 290 290 290 290 290 290 290 290 290 290 289 289 288 288 288 288 287 287 288 289 289 289 289 289 289 289 289 290 290 290 290 290 291 291 291 292 292 293 293 293 294 294 294 294 294 295 295 296
294 293 292 292 292 292 292 292 292 293 293 293 293 293 293 292 292 291 291 291 291 291 291 291 291 290 290 290 290 290 290 289 289 289 289 289 289 288 288 287 287 288 288 288 289 289 289 289 289 288 288 289 289 289 290 291 291 291 291 291 292 292 293 293 293 294 294 294 294 294 294 295 295 296
293 292 291 291 291 292 292 292 292 293 293 293 292 292 292 292 291 291 291 291 291 291 291 291 290 290 290 290 289 289 289 289 288 288 288 288 288 288 288 288 288 288 288 289 289 289 289 289 288 288 288 289 289 289 290 290 291 291 291 291 292 292 293 293 293 294 294 295 295 295 295 295 296 296
293 292 291 291 291 292 292 292 293 293 292 292 292 291 291 291 291 291 291 291 291 291 290 290 290 290 290 289 289 289 289 289 289 289 289 289 289 289 289 289 289 289 289 289 289 289 289 289 289 289 288 289 289 289 289 290 290 291 291 291 292 292 293 293 293 294 294 295 295 295 295 296 296 296
293 291 291 291 292 292 292 292 292 292 291 291 291 291 291 291 291 291 291 291 291 291 290 290 290 290 289 289 289 289 289 289 289 289 289 289 289 289 289 290 289 289 289 289 289 290 290 290 290 290 289 289 289 289 289 289 290 290 291 291 291 292 293 293 293 294 294 295 295 296 296 296 296 296
293 291 291 291 292 292 292 292 292 291 291 291 291 291 291 291 291 291 290 290 290 290 290 290 290 290 290 290 290 290 290 290 290 290 290 290 290 290 290 290 290 290 290 290 290 290 291 291 291 290 290 290 289 290 289 289 290 291 291 291 291 292 293 293 294 294 294 295 295 296 296 296 296 296
293 291 291 292 292 292 292 292 291 291 291 291 291 291 291 291 290 290 290 290 290 290 290 290 290 290 290 290 290 290 290 290 290 290 290 290 290 290 290 290 290 290 290 290 291 291 291 291 291 290 290 290 290 290 289 289 290 291 291 292 292 292 293 293 293 294 295 295 295 295 295 295 296 296
292 291 291 292 292 292 292 291 291 291 291 291 291 291 290 290 290 290 290 290 290 290 290 290 290 290 290 290 290 290 290 290 290 290 290 290 290 290 290 290 290 291 291 291 291 292 292 292 291 291 290 290 290 290 290 290 290 291 291 292 292 293 293 293 294 295 295 295 295 295 295 295 295 295
291 291 292 292 292 292 292 291 291 291 291 291 291 291 290 290 290 290 290 290 290 290 290 290 290 290 290 290 290 290 290 290 290 290 290 291 291 291 291 291 291 291 291 291 292 292 292 292 292 291 291 290 290 290 290 290 290 291 292 292 293 293 293 294 295 296 296 296 295 295 295 295 295 295
291 291 292 292 292 291 291 291 291 291 290 290 290 291 291 291 290 290 290 290 290 290 290 290 290 290 290 290 290 290 290 290 290 291 291 291 291 291 291 291 292 292 292 292 292 292 293 292 292 291 291 291 291 290 290 291 291 291 292 292 293 293 294 294 295 296 296 296 295 295 294 294 294 294
290 292 292 292 291 291 291 291 291 290 290 290 290 290 291 291 290 290 290 290 290 290 290 290 290 290 290 290 290 290 290 291 291 291 291 291 291 291 292 292 292 292 292 292 292 293 293 292 292 291 291 291 291 291 291 291 291 292 292 292 293 293 294 294 295 296 296 295 295 294 294 293 294 294
Wind_Speed
7 6 5 5 5 5 5 4 3 3 3 4 4 4 4 5 7 9 7 5 4 3 3 3 2 1 2 3 3 5 5 6 7 7 9 11 12 13 14 15 16 17 17 17 17 17 18 19 20 20 20 20 20 20 20 20 20 20 20 20 20 19 19 19 18 20 24 25 23 21 23 24 22 19
8 7 7 6 6 7 6 5 5 5 5 4 4 4 4 5 5 6 7 5 4 3 2 1 2 2 4 5 6 8 9 10 11 12 13 15 16 17 18 19 20 20 20 20 19 18 18 19 19 19 19 19 19 20 20 20 21 21 21 21 21 20 20 19 17 17 19 23 27 26 25 27 26 24
9 8 7 7 7 7 7 6 6 6 6 5 5 6 6 6 6 6 6 6 5 4 4 3 2 3 4 5 6 7 9 11 12 14 15 16 17 18 18 18 19 18 18 17 15 14 14 15 16 16 16 16 16 17 17 18 19 19 20 20 20 21 20 19 18 18 16 17 22 24 25 29 31 30
7 7 6 6 6 5 5 5 5 5 5 5 4 5 6 6 6 6 6 6 6 5 6 7 6 6 7 7 6 6 7 9 10 12 13 14 15 15 15 15 15 15 14 14 13 13 13 13 14 15 16 16 16 17 17 17 17 18 19 19 19 20 20 20 19 19 18 16 17 19 20 24 29 31
4 4 4 3 3 3 3 3 3 3 3 3 3 2 3 3 3 3 3 4 4 4 6 8 8 8 9 9 9 8 8 9 9 10 11 12 13 13 13 13 13 13 13 13 13 13 13 14 14 15 16 17 18 18 18 18 18 19 19 19 19 19 19 20 20 19 19 18 17 18 19 19 20 24
3 2 2 2 1 0 1 1 2 2 2 2 3 3 3 3 3 3 3 4 3 4 5 7 8 9 10 11 11 11 12 12 11 11 11 12 12 12 12 12 13 13 13 14 14 14 14 15 15 16 17 18 19 19 20 21 21 21 21 20 20 20 20 20 21 20 20 19 19 19 20 20 19 19
4 3 4 4 3 2 2 2 3 3 3 3 4 5 5 6 6 6 7 7 8 8 8 9 10 11 11 12 13 13 14 14 14 14 14 14 14 14 14 13 13 14 14 15 16 16 16 16 17 18 18 19 20 21 22 22 23 23 23 23 22 22 22 21 21 22 22 22 21 21 21 21 21 21
5 5 5 5 5 4 3 3 3 4 5 5 5 6 7 7 8 9 9 10 11 12 12 12 12 13 13 14 15 15 15 15 15 16 16 16 16 15 15 15 15 15 15 16 17 17 18 18 18 18 19 20 20 21 22 22 23 23 23 24 24 24 24 24 24 24 24 24 25 25 24 24 23 23
6 6 6 6 5 5 4 3 3 4 5 6 6 7 7 7 9 10 11 12 12 13 14 14 14 15 15 16 16 17 18 17 17 17 17 18 18 17 17 16 17 18 18 18 19 19 19 20 20 20 21 21 21 22 22 23 23 24 24 24 24 25 25 25 26 26 26 27 28 28 28 27 26 26
8 7 7 6 5 5 4 4 4 4 6 7 7 8 8 8 10 12 13 13 13 14 15 15 16 16 16 17 18 19 20 21 22 21 20 19 19 19 18 17 17 18 19 20 21 22 22 23 23 23 23 24 24 25 26 26 27 27 27 27 27 27 27 28 28 28 28 28 29 30 30 30 29 28
11 11 10 9 7 6 5 5 5 6 6 6 6 8 10 11 12 13 13 13 13 14 14 15 16 17 18 19 20 20 21 21 22 23 24 23 21 20 20 20 19 19 20 21 21 22 23 24 25 26 26 26 27 27 28 29 29 30 30 29 29 29 28 28 29 29 30 30 30 31 31 30 30 29
15 14 14 13 11 10 9 9 9 9 9 8 6 7 9 11 13 14 13 13 13 14 15 16 17 18 20 21 22 22 22 22 22 23 25 26 25 24 23 23 23 23 23 23 22 22 23 24 25 26 26 26 27 28 28 29 29 29 29 29 28 28 27 27 28 29 30 31 31 31 31 30 29 29
18 18 17 16 15 14 13 12 12 12 11 10 9 8 9 10 12 13 13 14 14 16 17 17 18 19 20 22 23 23 24 25 25 26 27 28 28 28 27 25 25 25 25 25 24 23 23 25 24 25 25 26 26 28 28 29 29 29 29 28 28 28 29 29 29 29 29 30 31 32 32 31 30 29
20 20 20 19 18 17 16 16 15 14 13 13 12 11 10 10 11 13 15 16 18 19 20 20 21 21 21 22 24 24 25 26 26 28 29 30 30 31 30 27 26 27 28 29 28 25 24 26 26 25 26 26 27 28 29 29 29 29 29 30 31 32 33 33 33 33 32 32 33 33 33 33 32 31
20 20 21 22 21 21 20 19 18 17 15 15 15 13 12 12 11 13 16 18 20 22 23 23 23 24 24 23 24 26 26 27 28 29 30 32 32 33 34 32 29 29 31 34 34 30 28 29 30 27 26 26 26 27 28 28 28 28 28 29 31 32 33 34 35 36 37 36 36 36 35 35 34 33
19 19 21 23 23 23 23 22 21 20 18 17 17 15 14 14 13 13 15 17 21 23 25 25 25 25 26 25 26 28 29 29 30 30 31 32 33 34 35 35 34 31 32 36 38 35 31 31 33 31 28 27 27 27 27 27 26 27 27 27 28 29 30 31 32 34 36 37 37 38 37 37 36 36
17 18 19 21 23 25 25 24 24 22 20 19 19 17 15 15 15 16 16 17 20 23 25 26 27 28 28 28 28 30 31 32 32 33 33 33 35 35 35 36 36 34 34 37 40 38 34 32 35 34 30 28 29 28 28 26 25 26 26 25 25 26 27 27 28 29 31 33 34 36 37 38 38 38
17 17 17 19 21 24 26 26 25 23 21 21 21 18 17 17 17 18 19 20 22 24 26 27 28 29 31 31 31 32 33 34 35 36 36 36 37 37 37 37 37 35 34 36 39 40 36 33 35 36 32 30 31 30 29 27 25 24 24 24 23 23 24 24 25 25 26 27 29 31 33 34 36 37
16 16 16 17 19 22 25 26 25 24 23 23 22 19 18 19 19 20 21 21 23 25 27 27 28 30 32 33 33 34 35 36 37 37 38 38 37 38 38 37 36 34 33 33 35 39 37 33 35 36 32 31 31 29 29 27 25 23 23 22 21 21 21 21 21 22 23 24 24 25 27 29 30 32
15 15 15 14 15 18 23 25 25 25 25 24 22 19 19 19 21 22 23 22 23 25 28 29 30 31 33 34 35 35 36 37 38 38 37 36 36 37 38 37 36 33 32 31 32 36 36 31 31 33 32 30 30 29 27 25 23 21 20 19 18 18 17 16 17 18 19 20 21 22 23 24 25 26
14 13 12 12 13 17 22 24 25 26 25 23 20 19 19 20 22 24 25 23 23 25 28 30 31 32 33 34 35 36 36 36 36 36 36 34 34 35 36 37 36 34 33 31 30 32 32 29 28 31 32 30 30 29 27 23 20 18 16 16 16 16 15 14 14 15 16 16 18 19 19 20 21 22
13 11 10 11 13 18 22 24 25 25 23 21 20 20 21 23 24 25 24 24 24 27 29 30 32 32 33 34 34 34 34 33 32 33 33 32 32 33 34 35 36 36 34 30 28 29 31 29 28 29 31 32 31 28 25 21 18 16 15 15 15 16 15 14 13 14 14 14 14 14 15 16 17 18
13 11 10 12 16 20 23 23 23 23 22 21 21 22 24 25 25 24 23 24 27 29 31 32 32 33 33 33 33 33 32 32 31 31 31 30 30 32 32 32 32 34 33 29 26 29 31 29 27 26 28 31 31 27 23 22 22 21 18 16 15 15 16 16 15 14 14 14 13 12 12 12 12 14
12 11 12 15 18 20 21 20 21 21 21 22 22 23 24 24 23 23 24 27 29 31 32 33 34 34 34 33 33 33 33 32 31 31 31 30 30 31 31 30 29 31 33 29 26 28 30 28 27 25 25 27 30 29 27 27 28 27 23 19 17 16 15 17 18 17 16 16 14 14 13 12 12 12
12 13 14 16 18 19 20 20 21 22 23 23 22 22 22 22 23 25 28 30 32 32 33 33 33 33 33 33 33 33 33 33 32 32 31 30 30 29 29 29 30 32 33 29 25 26 28 28 28 27 26 26 29 31 32 31 30 29 27 24 21 18 17 17 18 19 19 19 17 17 16 15 14 13
12 14 15 17 18 20 20 21 22 22 22 22 22 22 23 25 27 28 30 31 32 32 32 33 33 33 33 33 33 33 34 33 32 32 30 29 28 28 28 28 30 32 33 29 24 24 27 29 29 29 28 29 30 31 32 32 30 29 28 27 24 21 20 18 18 18 19 20 20 20 20 19 17 16
12 13 15 17 18 20 20 21 21 21 21 22 23 24 25 27 28 29 29 30 30 31 32 33 34 34 34 34 34 34 34 33 32 30 29 28 28 28 28 28 29 31 31 29 26 26 28 31 31 30 30 31 32 32 33 32 30 29 28 28 27 25 24 22 20 19 18 18 20 22 23 23 21 20
11 13 15 17 18 19 20 20 20 21 21 22 23 24 25 26 26 27 28 29 30 31 32 33 34 34 34 34 34 34 33 33 32 31 30 29 29 29 29 29 30 30 30 30 29 28 29 32 33 32 32 32 33 34 34 33 31 30 29 29 28 26 25 23 22 21 19 17 18 21 25 25 23 23
12 14 16 17 18 19 19 20 21 21 22 22 22 23 23 23 24 25 27 29 30 31 32 33 33 33 33 32 32 33 33 34 33 32 31 31 30 30 30 31 31 31 31 31 30 30 30 31 32 32 32 32 33 35 35 34 33 31 29 28 28 26 24 23 23 21 19 17 17 18 22 24 25 25
15 16 17 17 18 18 19 20 20 20 19 19 20 20 21 22 23 25 27 28 29 30 31 31 31 32 32 32 32 32 33 33 32 31 30 31 30 30 31 32 33 33 31 30 29 29 29 29 28 29 29 30 32 33 33 33 33 31 29 28 27 27 25 23 22 20 18 17 17 18 19 21 22 23
16 16 16 16 16 17 17 16 16 16 17 17 18 19 20 22 23 25 26 26 27 28 29 30 31 31 31 32 32 32 32 31 30 28 29 31 32 31 32 34 35 35 32 29 27 27 27 26 25 26 27 28 29 30 30 31 32 32 30 27 26 26 24 22 21 21 20 20 21 20 19 20 20 20
15 14 14 14 13 13 14 13 14 15 16 17 18 19 21 22 23 24 25 26 27 28 29 30 31 31 31 31 31 30 30 30 28 27 28 30 32 32 32 33 35 35 33 30 26 24 24 23 22 22 24 25 27 27 27 28 30 31 31 29 28 26 25 23 24 24 24 24 25 23 21 21 20 19
12 11 11 11 11 11 12 13 14 15 16 17 18 19 21 22 23 24 25 26 27 28 29 30 31 31 31 31 30 29 29 29 27 27 27 29 30 30 30 31 33 33 32 31 27 23 21 21 20 20 20 22 23 24 25 27 29 29 30 31 31 30 29 27 27 27 27 27 28 26 25 23 21 17
9 9 8 9 10 11 12 13 14 15 16 18 19 20 21 23 24 25 25 25 26 26 27 28 28 29 29 29 29 29 30 30 29 28 28 28 28 29 29 29 30 30 30 30 28 25 23 22 21 20 20 20 21 22 23 26 29 29 29 30 31 32 32 30 29 28 27 26 27 26 25 22 18 15
7 7 7 8 9 10 11 13 14 15 17 18 20 21 22 23 23 23 22 23 23 24 25 26 26 27 28 28 29 29 29 30 29 28 28 27 27 26 26 27 28 28 28 29 28 26 25 24 22 21 21 21 21 22 22 22 24 26 26 26 26 26 27 26 24 22 21 21 21 21 21 18 15 11
6 6 7 8 9 10 11 13 14 16 18 19 21 22 23 22 20 20 20 21 22 23 25 25 26 27 27 27 28 28 27 28 28 27 27 26 26 26 26 26 27 28 28 28 28 26 24 23 21 20 20 21 21 23 23 19 17 18 21 21 19 18 17 16 15 15 16 16 15 16 16 14 11 8
5 6 6 7 8 10 12 14 15 17 18 20 20 21 21 20 19 19 20 22 23 24 24 25 25 25 25 25 26 26 25 25 25 26 26 26 25 25 26 27 28 28 28 27 26 24 23 22 20 19 20 21 22 24 25 21 16 15 16 16 14 11 10 10 11 13 13 12 12 12 12 10 8 7
5 6 7 8 10 12 13 15 16 17 18 19 19 19 19 18 18 19 20 22 22 22 22 22 23 23 23 23 24 24 24 24 24 24 25 24 24 25 25 26 27 27 26 26 25 23 22 21 21 20 20 21 23 24 24 23 18 14 13 13 12 9 8 9 10 11 10 10 9 9 9 8 7 8
6 8 9 10 11 12 13 15 16 16 17 18 18 19 19 19 18 19 21 21 21 21 22 22 22 21 21 21 21 22 22 23 23 23 23 23 23 24 24 25 25 25 25 25 24 23 21 21 20 19 19 20 21 21 20 21 20 17 14 13 13 11 10 10 10 9 9 9 8 8 8 8 8 9
8 9 10 10 10 12 13 14 14 15 16 17 18 19 19 18 19 20 22 22 22 22 22 22 21 20 20 20 20 21 21 22 22 23 23 22 22 22 22 23 23 23 24 24 24 23 21 19 17 16 16 17 16 15 15 17 19 18 15 13 13 13 13 13 12 11 10 9 8 8 8 9 9 9
9 9 9 9 10 11 11 12 13 14 16 17 18 19 18 17 19 21 22 22 22 22 22 21 20 19 19 19 20 20 21 22 22 22 22 22 22 22 22 22 22 22 22 23 23 21 19 17 15 14 14 14 13 13 14 17 18 17 13 10 11 13 14 14 13 11 10 8 8 8 9 9 9 9
9 9 8 8 9 9 10 11 13 14 15 16 18 19 18 18 18 20 21 22 23 23 23 22 21 20 19 19 19 20 21 22 22 21 21 21 22 22 22 21 21 21 21 21 22 20 17 15 14 13 13 13 13 14 16 17 16 14 10 8 9 10 11 11 11 10 8 5 4 5 7 8 8 8
8 8 7 7 8 8 9 11 12 13 14 16 18 20 20 20 19 19 21 23 25 26 25 24 22 20 19 19 19 20 21 21 21 21 21 21 21 22 21 21 20 20 20 20 20 18 14 13 12 12 12 13 14 14 16 15 14 11 9 7 7 7 8 8 7 7 6 5 4 1 3 5 4 4
7 7 6 6 7 8 9 10 11 13 15 17 19 20 21 21 20 20 21 23 26 27 26 26 24 21 19 19 20 20 20 20 20 21 21 20 20 20 20 19 19 18 18 18 17 15 12 10 10 11 12 13 13 14 14 13 11 10 8 6 5 5 5 4 4 6 7 7 5 2 1 2 2 2
6 6 5 5 6 7 8 10 11 13 15 18 20 22 22 21 21 20 20 22 25 27 27 27 25 22 20 19 20 21 20 20 20 20 20 20 19 19 19 18 18 17 16 15 15 13 10 9 9 10 11 11 11 12 12 12 10 8 7 5 4 4 4 2 4 7 8 7 5 3 3 2 1 0
Wind_Direction
81 83 84 87 89 85 78 73 72 67 61 63 69 89 119 148 169 174 170 160 144 134 155 177 185 232 265 271 275 274 271 269 270 273 276 279 282 283 283 282 283 283 282 281 280 279 278 279 280 281 279 275 272 271 270 270 271 272 271 271 270 270 270 270 271 271 269 269 271 275 276 275 274 267
87 85 82 85 89 85 78 70 61 53 49 49 50 58 76 100 129 150 149 137 117 103 116 196 238 263 276 273 274 278 277 276 275 275 276 277 278 279 280 281 283 283 284 285 284 282 279 277 278 279 279 279 276 273 272 271 270 272 272 271 271 271 271 271 270 268 268 269 267 270 278 279 277 271
90 89 86 82 81 78 76 73 68 58 55 56 60 62 68 75 80 89 100 94 71 64 64 37 351 339 323 298 286 285 282 281 279 277 276 275 275 276 277 278 279 280 283 285 285 282 276 272 271 272 273 275 274 273 273 272 271 271 271 272 272 271 271 271 271 268 267 267 262 266 274 271 267 265
98 98 95 90 88 85 80 77 75 69 64 60 60 67 72 72 67 64 69 66 50 38 30 17 358 347 339 323 307 297 294 292 288 285 282 279 278 277 277 276 276 276 275 274 274 272 269 267 266 266 267 270 272 274 275 275 274 273 272 273 272 272 272 270 270 269 267 267 263 264 268 266 263 262
117 115 113 112 111 112 105 93 80 67 64 51 31 39 50 56 55 40 35 45 47 28 6 357 349 342 335 328 321 311 305 303 299 295 290 286 283 279 276 274 271 269 266 266 267 268 268 269 269 269 269 271 272 274 276 277 278 277 276 276 274 274 274 271 269 267 263 263 264 264 265 266 265 261
169 178 186 192 185 123 45 39 32 20 22 5 341 338 336 340 345 339 335 332 328 333 337 334 334 335 332 328 325 321 317 314 310 307 302 297 292 286 281 276 272 269 265 263 264 267 269 271 273 274 274 274 274 275 276 276 277 278 276 276 276 275 275 274 271 268 264 260 258 259 260 260 261 260
208 217 226 233 247 273 307 331 340 341 338 331 323 322 323 325 326 325 322 319 314 310 316 320 320 322 325 325 324 323 322 320 314 309 306 304 301 297 293 286 281 277 272 269 267 267 269 271 274 276 276 277 277 277 277 277 277 278 277 275 275 274 273 272 270 268 266 264 261 260 258 257 255 255
232 234 232 232 243 259 278 300 319 325 322 319 316 315 318 319 320 320 316 316 316 313 315 318 318 318 321 322 321 318 316 316 314 311 309 306 302 299 297 293 290 286 282 278 275 272 273 273 274 276 277 278 278 278 278 278 278 277 276 275 274 273 272 271 269 268 266 265 265 264 263 261 257 255
247 246 243 236 235 244 261 278 299 312 312 310 309 310 312 313 315 316 315 314 314 314 315 316 316 316 317 318 318 316 313 311 309 307 307 308 306 303 300 297 294 292 288 285 280 277 275 274 273 274 276 277 278 279 278 277 278 277 276 275 273 272 271 270 269 267 266 265 265 265 266 265 263 259
269 263 257 253 247 243 247 259 277 294 299 301 304 306 308 311 311 309 309 309 309 310 311 313 313 313 313 314 315 317 317 317 314 310 307 307 308 306 303 300 297 294 291 287 284 281 278 276 274 273 274 274 275 276 276 277 278 278 277 276 275 273 271 270 268 266 265 264 263 264 266 266 265 261
276 274 268 267 268 264 261 261 259 264 272 284 299 309 311 311 307 301 298 302 305 307 308 309 309 312 314 315 315 317 318 317 315 312 309 307 306 305 304 304 303 301 298 293 289 286 283 281 280 278 278 278 277 277 277 277 277 278 278 277 276 274 271 268 266 264 262 262 262 263 264 264 263 260
271 269 266 266 266 267 269 269 264 259 259 263 274 293 302 304 302 300 299 302 304 305 305 305 306 309 313 314 313 313 314 313 313 315 315 314 311 310 309 310 309 306 304 300 296 292 288 283 281 281 280 279 279 277 276 276 275 275 276 275 274 272 268 266 264 261 260 260 260 261 261 261 260 258
271 268 265 263 264 265 266 267 266 262 259 261 266 275 287 295 300 300 301 305 309 309 307 305 304 306 309 311 312 312 314 316 318 319 319 317 315 313 311 311 311 310 307 304 300 297 295 291 286 284 283 281 279 278 276 274 273 272 272 271 270 268 267 266 264 262 261 260 259 259 259 258 258 258
272 270 265 263 264 266 264 263 264 263 261 264 267 271 279 288 297 300 301 304 309 311 309 307 305 306 309 312 315 315 316 317 318 317 317 316 316 315 312 310 311 313 312 308 302 299 300 298 293 290 288 286 284 282 279 277 276 274 273 271 269 267 267 266 266 266 265 264 262 260 259 258 257 258
272 271 266 262 261 261 262 263 264 264 262 263 266 272 276 276 285 297 301 301 301 304 306 308 308 309 311 314 316 315 315 316 316 316 316 316 316 316 315 313 311 313 314 310 304 302 302 302 299 295 293 290 287 285 283 282 281 281 278 275 272 270 269 268 268 267 268 267 266 264 261 259 258 258
271 271 268 264 261 261 262 263 265 264 261 260 265 273 276 276 281 292 297 296 296 299 303 308 311 312 313 314 314 313 314 315 315 315 315 315 315 314 314 313 311 312 313 309 305 302 302 304 302 299 298 298 294 290 288 287 287 285 283 280 278 276 274 272 270 269 268 268 267 266 264 262 260 259
270 269 268 266 263 261 260 260 261 261 257 256 263 272 274 274 280 287 292 297 300 302 305 309 311 312 312 313 313 312 313 313 314 315 314 314 313 312 312 310 309 311 311 309 306 302 301 304 303 301 302 301 298 296 294 293 292 289 287 285 284 282 278 276 273 271 269 268 267 267 266 264 263 261
275 270 267 265 263 261 259 257 255 253 252 254 262 269 270 271 279 288 295 301 304 304 305 306 308 309 310 311 311 310 311 312 314 314 313 312 312 311 309 308 308 310 309 307 305 301 300 302 302 301 302 300 297 297 297 296 296 293 290 289 287 285 281 279 277 275 273 270 269 267 266 265 264 263
279 271 265 262 261 261 261 257 253 251 251 254 260 266 269 274 283 291 296 300 302 303 304 304 306 306 306 306 307 308 310 311 311 310 309 310 310 308 306 305 306 307 306 304 303 301 302 302 299 298 300 298 295 296 296 297 297 295 292 290 286 284 283 282 280 278 276 274 272 270 268 267 265 264
279 271 263 256 256 259 259 255 249 247 249 254 260 266 271 279 288 292 294 295 298 301 302 302 302 302 301 302 304 306 308 308 307 306 306 307 307 306 304 304 305 305 304 303 302 302 304 306 302 299 299 299 297 296 297 299 299 296 293 288 281 278 280 280 279 278 276 275 273 272 271 270 268 266
279 271 262 252 250 254 252 245 241 244 250 257 263 266 272 280 286 289 289 289 292 297 299 299 298 298 298 300 302 303 304 304 304 304 304 305 305 303 303 304 304 304 304 304 304 303 304 308 307 303 301 300 299 298 298 299 298 295 292 286 277 271 269 270 272 274 274 274 273 272 271 270 267 263
289 281 270 255 246 243 240 237 240 249 257 261 263 267 273 279 283 285 286 289 294 297 298 296 296 296 297 299 299 300 300 301 301 302 302 303 302 300 301 302 302 302 302 303 305 303 302 306 309 308 305 302 300 301 303 300 293 287 288 288 280 268 261 261 265 269 271 274 276 275 274 274 271 266
296 288 274 256 243 237 235 238 245 252 256 258 263 269 274 278 280 281 284 289 292 293 293 293 293 295 296 297 298 298 299 300 301 301 301 301 300 299 299 299 301 300 300 302 306 303 302 306 310 311 311 307 303 303 304 299 293 289 289 289 283 273 263 258 258 263 266 269 273 275 273 273 275 275
290 279 266 254 246 242 243 247 249 250 253 257 263 268 272 275 278 282 285 288 290 291 291 293 294 295 296 297 298 299 300 300 300 300 300 299 297 296 296 297 297 296 295 300 304 302 301 305 305 306 307 304 300 299 298 296 295 294 291 288 287 284 276 264 259 259 261 261 264 270 272 271 270 270
276 268 260 254 250 249 249 251 251 252 257 262 266 271 275 279 283 287 289 291 292 294 295 296 296 297 298 298 299 300 300 300 300 300 300 298 295 292 292 293 293 291 293 298 301 298 297 298 299 300 301 297 295 297 298 297 298 298 296 293 289 288 287 280 269 263 262 259 257 261 266 269 269 268
269 264 260 256 254 252 252 254 257 261 266 271 276 279 283 286 289 290 291 292 293 294 295 296 297 298 299 300 300 300 300 300 300 301 299 296 292 290 288 288 289 289 292 295 296 292 291 290 292 295 296 295 294 295 296 297 299 301 301 299 295 290 289 288 282 274 268 263 257 257 262 265 266 268
267 265 264 262 262 262 262 264 268 272 276 279 282 284 286 289 290 290 290 290 292 293 294 296 297 298 299 299 299 300 300 300 301 301 299 295 293 291 289 287 286 287 290 291 290 286 284 284 285 286 288 291 292 292 292 294 296 298 300 300 299 295 291 289 287 283 279 271 262 259 262 265 265 264
268 269 269 269 269 268 269 271 274 277 279 280 282 285 287 287 288 288 290 292 294 295 295 296 296 297 298 298 299 300 300 300 300 299 297 295 293 291 289 287 286 286 287 287 287 285 283 281 281 280 281 283 285 286 287 289 291 293 295 296 297 297 295 293 290 287 285 279 268 261 260 263 266 267
277 278 275 272 270 269 271 274 277 278 280 282 284 286 286 286 288 291 293 294 294 294 294 295 296 297 298 299 299 300 300 299 298 296 295 293 291 289 287 286 285 284 285 285 286 286 283 282 281 281 278 277 277 278 281 284 286 288 291 292 293 295 295 293 290 288 283 276 271 267 263 262 265 271
280 278 274 271 271 272 274 276 278 281 283 285 285 285 287 290 292 293 293 293 292 293 294 296 297 299 300 300 300 300 300 298 297 295 293 291 289 289 288 288 286 286 287 289 289 287 284 282 282 281 279 276 274 274 276 279 282 283 285 287 290 292 291 289 285 280 275 273 276 277 272 267 267 272
278 277 275 274 275 277 278 278 279 281 281 282 284 286 289 291 292 293 294 295 295 296 297 298 299 300 301 300 299 299 298 297 297 295 292 290 289 290 290 289 289 292 295 296 294 290 286 283 281 279 278 277 276 276 276 277 278 278 279 279 281 283 283 281 277 273 275 282 285 280 276 274 272 272
283 283 280 277 275 275 276 274 275 277 278 283 287 290 293 295 297 299 299 298 297 296 296 296 297 298 299 300 300 300 299 299 298 296 292 290 290 291 291 290 291 295 299 300 297 293 289 286 283 279 277 276 276 277 276 274 273 274 274 272 271 272 273 271 271 272 276 280 281 279 277 276 274 272
281 278 273 270 269 270 271 273 276 280 284 289 293 296 300 303 304 305 303 300 297 296 295 296 297 299 300 301 302 303 303 302 303 301 298 295 295 295 294 292 293 296 299 301 302 300 295 293 291 286 281 276 273 273 273 272 271 270 269 268 266 266 266 267 268 271 274 277 278 279 279 278 274 270
266 267 267 268 270 272 274 278 282 287 292 296 300 304 308 310 311 309 307 304 301 300 300 300 300 301 302 303 304 306 306 305 306 304 302 301 299 297 296 294 294 296 298 300 304 305 304 302 300 295 289 281 274 269 266 267 269 271 271 271 270 269 268 269 271 273 275 276 277 277 277 275 272 267
259 268 274 275 276 279 283 288 293 299 304 308 311 313 315 316 315 313 311 309 308 306 305 305 304 305 305 305 307 307 306 306 306 306 305 304 301 300 298 295 294 296 297 298 301 305 306 304 301 297 292 288 283 276 269 265 268 274 277 277 276 275 273 273 274 274 273 271 270 270 269 267 265 262
268 278 282 284 287 293 298 303 309 313 317 319 320 320 319 319 319 319 317 316 314 312 311 309 308 308 308 309 309 308 308 308 308 308 307 307 305 304 301 298 297 299 299 299 301 304 303 300 298 293 288 286 284 281 279 276 274 275 277 278 276 275 274 273 269 266 266 266 263 262 261 260 258 258
279 287 293 298 305 311 315 318 321 323 325 325 325 324 323 323 324 325 323 321 319 317 316 314 313 313 313 312 311 310 310 309 308 307 306 306 305 304 303 301 301 300 299 299 300 301 299 297 294 289 283 280 280 279 282 286 284 275 274 277 277 270 267 268 262 256 258 260 256 254 255 255 255 257
299 310 316 319 322 324 325 325 327 328 329 329 328 327 327 328 329 328 326 324 322 321 320 319 318 316 314 313 312 311 311 309 307 305 305 305 305 304 302 301 300 299 299 299 299 299 298 294 290 285 278 274 274 276 281 286 287 276 269 273 275 266 255 257 258 253 254 258 255 250 249 250 255 262
324 330 329 329 329 328 328 330 332 333 332 331 329 330 329 329 329 330 330 329 328 328 327 324 321 318 316 315 315 314 312 311 308 307 308 308 306 304 301 300 300 300 300 300 300 299 297 293 290 288 282 276 275 276 279 283 283 275 262 259 261 255 241 241 248 252 257 262 260 254 253 252 253 259
331 332 330 330 330 329 332 335 336 334 333 332 332 331 329 329 333 337 338 337 335 334 331 327 324 323 322 322 322 319 315 313 311 310 310 308 305 303 302 301 301 301 300 300 299 299 298 297 296 294 291 286 283 279 278 277 276 271 261 251 249 247 241 239 245 250 255 262 265 265 263 258 254 256
328 328 328 329 331 333 336 337 336 335 335 336 336 335 334 337 343 344 343 342 340 336 333 330 330 330 329 329 329 326 321 317 314 312 310 308 307 305 304 302 301 300 299 299 299 299 301 302 299 292 285 281 276 272 272 271 269 269 265 250 242 246 247 244 243 246 252 263 273 271 262 256 254 255
325 325 324 329 334 337 338 337 336 338 340 343 344 343 342 345 348 347 347 348 346 342 339 337 335 332 332 333 334 331 327 322 319 316 315 313 312 309 307 304 302 301 300 299 299 301 303 300 293 284 276 268 261 260 263 264 264 267 265 248 240 246 248 244 241 242 243 241 252 266 260 255 254 252
322 319 321 329 336 338 337 335 336 339 344 349 350 348 346 347 347 348 351 351 348 345 343 342 338 334 333 335 336 334 331 328 325 322 320 318 316 313 310 307 304 302 301 299 300 301 300 294 287 278 267 256 249 249 253 258 259 256 252 249 247 243 240 239 237 230 212 173 137 122 270 258 259 264
314 312 318 325 330 333 332 331 333 340 348 352 352 350 349 347 346 348 351 350 347 345 345 344 340 336 335 336 336 335 334 332 329 327 325 323 320 316 311 308 306 304 302 302 301 300 296 288 279 270 261 252 245 243 247 250 246 240 240 250 248 225 218 221 208 192 176 150 127 111 187 223 259 313
304 303 307 311 319 323 321 322 333 345 351 354 353 352 351 349 346 347 350 350 348 348 348 346 343 339 337 337 338 336 335 333 331 330 329 325 320 314 308 305 304 303 303 303 301 297 293 284 273 264 258 252 245 242 241 237 231 231 242 249 235 214 209 193 165 165 161 151 146 144 129 127 281 350